FENGYUN 1C DEB, 29865

Orbit data source: Space-Track

FENGYUN 1C DEB, 29865 is space debris in SSO originally from a launch on Mon, 10 May 1999 UTC launched from the Taiyaun Space Center, China (TSC). Fengyun 1C debris stems from the Chinese weather satellite Fengyun-1C, which was intentionally destroyed by a Chinese anti-satellite missile in 2007. This event dramatically increased the amount of space debris, with thousands of trackable fragments posing hazards to satellites and human spaceflight. The Fengyun 1C debris cloud has become a focal point in discussions about space sustainability and the need for international regulations to prevent the creation of new debris.

Loading next visibility...
Identifier
29865, 1999-025FK
Orbit
SSO
Country
Flag of CNCN / PRC
Related business
Manufacturer
Unknown
Mission
Spacecraft
Bus & Motor
Unknown
Mass
Unknown
Launch date (UTC)
1999-05-10 (26 years ago)
Launch vehicle
Unknown
Launch site
Taiyaun Space Center, China (TSC)
Object type
Payload
Rocket body
Debris
Shape & HBR
Unknown shape, 0.1 m
Radar Cross Section
Small (<0.1 m²)

Expand to show TLE details & history
Last TLE update: 19 hours ago

TLE from 19 hours ago
0 FENGYUN 1C DEB
1 29865U 99025FK  25291.30724610  .00012998  00000-0  14771-2 0  9998
2 29865  98.9180 195.7492 0117378 318.1392 170.3493 14.81510878999364
Epoch: 2025-10-18T07:22Z
TLE epoch observation values (Epoch: 2025-10-18T07:22:26.063Z)
Latitude
50.53478°
Longitude
-110.97173°
Altitude
713.708 km
Speed
7.46 km/s
True Right ascension
01h 46m 42s
True Declination
50° 21' 54"
Sunlit
Object was in full shadow at epoch
Visualization orbit readout
Latitude
Unknown
Longitude
Unknown
Altitude
Unknown
Speed
Unknown
Apparent Right ascension
Unknown
Apparent Declination
Unknown
Sunlit
N/A
Visualization observer readout
Local Sidereal Time
21:16:50
Azimuth
Unknown
Elevation
Unknown
Doppler factor
Unknown
Orbital elements
Apogee altitude
703.808 km
Perigee altitude
539.484 km
Semi-major axis
6,999.783 km
Eccentricity
0.01174
Inclination
98.918°
RAAN
195.7492°
Arg. of periapsis
318.1392°
True anomaly
170.57157°
Mean anomaly
170.3493°
Eccentric anomaly
170.46075°
Mean motion
3.70609 °/min
Orbital period
97.14 mins
BSTAR
0.0014771
Loading maneuver chart data...
Computing Atmospheric mass density...

Documentation

Showing up to 5 results
|